DW8259 Weather Reports


time (UTC)temp
C
wind
direction
speed
KPH
gust
KPH
rain 1hr
cm
rain 24hr
cm
rain mn
cm
humidity
%
barometer
mb
20260906052503 23 82 0.0 1.6 0.00 0.00 0.00 89 1016.2
20260906052003 23 0 0.0 1.6 0.00 0.00 0.00 90 1016.2
20260906051503 23 82 0.0 1.6 0.00 0.00 0.00 90 1016.1
20260906051003 23 82 0.0 1.6 0.00 0.00 0.00 89 1016.1
20260906050503 23 82 0.0 1.6 0.00 0.00 0.00 89 1016.1
20260906050016 23 82 0.0 1.6 0.00 0.00 0.00 89 1016.0
20260906045503 23 82 0.0 1.6 0.00 0.00 0.00 89 1015.9
20260906045214 23 82 0.0 1.6 0.00 0.00 0.00 89 1015.8
20260906044503 23 0 0.0 0.0 0.00 0.00 0.00 89 1015.8
20260906044214 23 0 0.0 0.0 0.00 0.00 0.00 89 1015.8
20260906043503 23 82 0.0 1.6 0.00 0.00 0.00 89 1015.7
20260906043003 23 82 0.0 1.6 0.00 0.00 0.00 89 1015.6
20260906042503 23 82 0.0 1.6 0.00 0.00 0.00 89 1015.6
20260906042003 23 82 0.0 1.6 0.00 0.00 0.00 89 1015.6
20260906041503 23 82 0.0 1.6 0.00 0.00 0.00 88 1015.5
20260906041003 24 82 0.0 1.6 0.00 0.00 0.00 89 1015.3
20260906040503 24 82 0.0 1.6 0.00 0.00 0.00 88 1015.3
20260906040214 24 82 0.0 1.6 0.00 0.00 0.00 88 1015.2
20260906035503 24 82 0.0 1.6 0.00 0.00 0.00 88 1015.1
20260906035003 24 82 0.0 1.6 0.00 0.00 0.00 88 1015.2
20260906034503 24 82 0.0 3.2 0.00 0.00 0.00 88 1015.2
20260906034003 24 82 0.0 3.2 0.00 0.00 0.00 88 1015.1
20260906033503 24 82 0.0 1.6 0.00 0.00 0.00 87 1015.0
20260906033214 24 82 0.0 1.6 0.00 0.00 0.00 88 1014.9
20260906032503 24 82 0.0 1.6 0.00 0.00 0.00 87 1014.9
20260906032003 24 82 0.0 1.6 0.00 0.00 0.00 87 1015.0
20260906031503 25 83 0.0 1.6 0.00 0.00 0.00 87 1015.1
20260906031213 25 86 0.0 1.6 0.00 0.00 0.00 87 1015.1
20260906030503 25 87 0.0 1.6 0.00 0.00 0.00 86 1015.1
20260906030003 25 87 0.0 3.2 0.00 0.00 0.00 86 1015.0
20260906025503 25 87 0.0 3.2 0.00 0.00 0.00 86 1015.0
20260906025003 25 87 0.0 1.6 0.00 0.00 0.00 86 1015.0
20260906024503 25 88 0.0 3.2 0.00 0.00 0.00 86 1014.9
20260906024213 25 88 0.0 3.2 0.00 0.00 0.00 86 1014.9
20260906023714 25 88 0.0 3.2 0.00 0.00 0.00 86 1014.8
20260906023213 25 89 0.0 3.2 0.00 0.00 0.00 86 1014.7
20260906022714 25 97 0.0 4.8 0.00 0.00 0.00 86 1014.7
20260906022003 25 107 0.0 4.8 0.00 0.00 0.00 86 1014.7
20260906021503 25 99 0.0 8.0 0.00 0.00 0.00 85 1014.6
20260906021003 26 87 0.0 8.0 0.00 0.00 0.00 85 1014.6
20260906020503 26 71 0.0 8.0 0.00 0.00 0.00 85 1014.5
20260906020003 26 69 0.0 9.7 0.00 0.00 0.00 85 1014.5
20260906015503 26 72 0.0 9.7 0.00 0.00 0.00 85 1014.5
20260906015004 26 85 0.0 4.8 0.00 0.00 0.00 85 1014.5
20260906014503 26 86 0.0 3.2 0.00 0.00 0.00 85 1014.4
20260906014003 26 86 0.0 3.2 0.00 0.00 0.00 84 1014.3
20260906013503 26 86 0.0 3.2 0.00 0.00 0.00 84 1014.3
20260906013003 27 86 0.0 1.6 0.00 0.00 0.00 84 1014.2
20260906012503 27 86 0.0 3.2 0.00 0.00 0.00 83 1014.2
20260906012003 27 86 0.0 4.8 0.00 0.00 0.00 83 1014.2
20260906011714 27 86 0.0 4.8 0.00 0.00 0.00 83 1014.1
20260906011003 27 85 0.0 3.2 0.00 0.00 0.00 82 1014.0
20260906010503 27 87 0.0 1.6 0.00 0.00 0.00 82 1013.9
20260906010213 27 87 0.0 1.6 0.00 0.00 0.00 82 1013.9
20260906005503 28 90 0.0 8.0 0.00 0.00 0.00 81 1013.8
20260906005003 28 93 0.0 8.0 0.00 0.00 0.00 81 1013.8
20260906004503 28 105 0.0 3.2 0.00 0.00 0.00 81 1013.9
20260906004003 28 117 0.0 1.6 0.00 0.00 0.00 80 1013.9
20260906003503 28 0 0.0 1.6 0.00 0.00 0.00 80 1013.8
20260906003003 28 0 0.0 0.0 0.00 0.00 0.00 80 1013.7
20260906002713 28 0 0.0 0.0 0.00 0.00 0.00 80 1013.7
20260906002212 28 0 0.0 0.0 0.00 0.00 0.00 80 1013.8
20260906001503 29 0 0.0 0.0 0.00 0.00 0.00 79 1013.7
20260906001212 29 173 0.0 1.6 0.00 0.00 0.00 79 1013.7
20260906000503 30 173 0.0 1.6 0.00 0.00 0.00 79 1013.7
20260906000003 30 0 0.0 0.0 0.00 0.00 0.00 78 1013.6
20260905235503 30 0 0.0 0.0 0.00 0.00 0.00 78 1013.5
20260905235214 30 0 0.0 0.0 0.00 0.00 0.00 78 1013.4
20260905234503 30 218 0.0 1.6 0.00 0.00 0.00 77 1013.4
20260905234003 30 337 0.0 8.0 0.00 0.00 0.00 77 1013.4
20260905233503 30 346 0.0 8.0 0.00 0.00 0.00 76 1013.3
20260905233214 31 89 0.0 1.6 0.00 0.00 0.00 76 1013.2
20260905232503 31 89 0.0 3.2 0.00 0.00 0.00 76 1013.2
20260905232003 31 88 0.0 3.2 0.00 0.00 0.00 75 1013.1
20260905231503 31 88 0.0 3.2 0.00 0.00 0.00 74 1013.2
20260905231003 31 114 0.0 1.6 0.00 0.00 0.00 74 1013.1
20260905230713 31 114 0.0 1.6 0.00 0.00 0.00 74 1013.1
20260905230003 32 0 0.0 1.6 0.00 0.00 0.00 73 1013.0
20260905225713 32 190 0.0 1.6 0.00 0.00 0.00 73 1013.0
20260905225214 31 190 0.0 1.6 0.00 0.00 0.00 73 1013.0
20260905224503 31 0 0.0 0.0 0.00 0.00 0.00 73 1013.0
20260905224003 32 0 0.0 0.0 0.00 0.00 0.00 73 1013.0
20260905223503 32 0 0.0 0.0 0.00 0.00 0.00 73 1013.0
20260905223214 32 0 0.0 0.0 0.00 0.00 0.00 72 1013.0
20260905222503 32 182 0.0 1.6 0.00 0.00 0.00 72 1013.0
20260905222214 32 182 0.0 1.6 0.00 0.00 0.00 72 1012.9
20260905221503 32 0 0.0 0.0 0.00 0.00 0.00 71 1013.0
20260905221003 32 0 0.0 0.0 0.00 0.00 0.00 70 1013.0
20260905220503 32 0 0.0 0.0 0.00 0.00 0.00 69 1012.9
20260905220003 32 0 0.0 0.0 0.00 0.00 0.00 70 1012.9
20260905215503 33 0 0.0 0.0 0.00 0.00 0.00 70 1012.9
20260905215003 33 0 0.0 0.0 0.00 0.00 0.00 71 1012.9
20260905214503 32 0 0.0 0.0 0.00 0.00 0.00 71 1013.0
20260905214003 33 0 0.0 0.0 0.00 0.00 0.00 69 1012.9
20260905213503 33 172 0.0 1.6 0.00 0.00 0.00 69 1013.0
20260905213003 33 172 0.0 1.6 0.00 0.00 0.00 69 1012.9
20260905212503 33 0 0.0 0.0 0.00 0.00 0.00 68 1012.9
20260905212003 33 0 0.0 0.0 0.00 0.00 0.00 67 1013.0
20260905211503 34 0 0.0 0.0 0.00 0.00 0.00 66 1013.1
20260905211003 34 0 0.0 0.0 0.00 0.00 0.00 66 1013.1
20260905210503 33 0 0.0 0.0 0.00 0.00 0.00 69 1013.1
20260905210003 33 0 0.0 0.0 0.00 0.00 0.00 68 1013.2
20260905205503 33 0 0.0 0.0 0.00 0.00 0.00 70 1013.3
20260905205003 33 0 0.0 0.0 0.00 0.00 0.00 71 1013.3
20260905204503 33 0 0.0 0.0 0.00 0.00 0.00 73 1013.3
20260905204003 32 0 0.0 0.0 0.00 0.00 0.00 73 1013.2
20260905203503 32 0 0.0 0.0 0.00 0.00 0.00 73 1013.2
20260905203003 33 0 0.0 0.0 0.00 0.00 0.00 70 1013.3
20260905202503 33 0 0.0 0.0 0.00 0.00 0.00 70 1013.3
20260905202003 33 0 0.0 0.0 0.00 0.00 0.00 70 1013.3
20260905201503 33 0 0.0 0.0 0.00 0.00 0.00 69 1013.4
20260905201003 33 0 0.0 0.0 0.00 0.00 0.00 71 1013.5
20260905200503 33 0 0.0 0.0 0.00 0.00 0.00 71 1013.4
20260905200004 33 0 0.0 0.0 0.00 0.00 0.00 69 1013.6
20260905195503 33 0 0.0 0.0 0.00 0.00 0.00 71 1013.6
20260905195213 33 0 0.0 0.0 0.00 0.00 0.00 69 1013.6
20260905194503 33 0 0.0 0.0 0.00 0.00 0.00 70 1013.6
20260905194003 33 0 0.0 0.0 0.00 0.00 0.00 70 1013.7
20260905193503 33 0 0.0 0.0 0.00 0.00 0.00 71 1013.8
20260905193003 33 0 0.0 0.0 0.00 0.00 0.00 71 1013.8
20260905192503 33 0 0.0 0.0 0.00 0.00 0.00 71 1013.8
20260905192003 33 0 0.0 0.0 0.00 0.00 0.00 69 1013.8
20260905191503 33 0 0.0 0.0 0.00 0.00 0.00 69 1013.8
20260905191003 33 0 0.0 0.0 0.00 0.00 0.00 70 1013.8
20260905190503 33 0 0.0 0.0 0.00 0.00 0.00 70 1013.8
20260905190212 33 0 0.0 0.0 0.00 0.00 0.00 71 1013.7
20260905185503 33 0 0.0 0.0 0.00 0.00 0.00 68 1013.8
20260905185003 34 0 0.0 0.0 0.00 0.00 0.00 68 1013.8
20260905184503 34 0 0.0 0.0 0.00 0.00 0.00 67 1013.8
20260905184003 34 100 0.0 11.3 0.00 0.00 0.00 66 1013.8
20260905183503 34 100 0.0 11.3 0.00 0.00 0.00 67 1013.8
20260905183003 34 0 0.0 0.0 0.00 0.00 0.00 67 1013.8
20260905182503 34 90 0.0 1.6 0.00 0.00 0.00 65 1013.9
20260905182003 34 90 0.0 1.6 0.00 0.00 0.00 67 1014.0
20260905181503 34 90 0.0 1.6 0.00 0.00 0.00 67 1014.0
20260905181214 34 90 0.0 1.6 0.00 0.00 0.00 68 1014.0
20260905180713 34 90 0.0 1.6 0.00 0.00 0.00 67 1014.0
20260905180003 34 0 0.0 0.0 0.00 0.00 0.00 67 1014.1
20260905175503 34 0 0.0 0.0 0.00 0.00 0.00 67 1014.1
20260905175003 34 0 0.0 0.0 0.00 0.00 0.00 70 1014.2
20260905174503 33 83 0.0 8.0 0.00 0.00 0.00 69 1014.2
20260905174003 33 83 0.0 8.0 0.00 0.00 0.00 69 1014.3
20260905173503 33 84 0.0 3.2 0.00 0.00 0.00 72 1014.3
20260905173004 33 84 0.0 3.2 0.00 0.00 0.00 69 1014.4
20260905172503 33 0 0.0 0.0 0.00 0.00 0.00 69 1014.4
20260905172003 33 0 0.0 0.0 0.00 0.00 0.00 71 1014.3
20260905171503 33 0 0.0 0.0 0.00 0.00 0.00 72 1014.4
20260905171003 33 85 0.0 1.6 0.00 0.00 0.00 72 1014.5
20260905170713 33 85 0.0 1.6 0.00 0.00 0.00 71 1014.5
20260905170003 33 0 0.0 0.0 0.00 0.00 0.00 71 1014.6
20260905165503 33 0 0.0 0.0 0.00 0.00 0.00 70 1014.5
20260905165003 33 0 0.0 0.0 0.00 0.00 0.00 69 1014.6
20260905164503 33 85 0.0 3.2 0.00 0.00 0.00 71 1014.6
20260905164003 33 85 0.0 3.2 0.00 0.00 0.00 70 1014.6
20260905163503 33 0 0.0 0.0 0.00 0.00 0.00 69 1014.5
20260905163213 33 0 0.0 0.0 0.00 0.00 0.00 70 1014.5
20260905162714 33 0 0.0 0.0 0.00 0.00 0.00 71 1014.5
20260905162003 33 0 0.0 0.0 0.00 0.00 0.00 71 1014.5
20260905161503 33 92 0.0 1.6 0.00 0.00 0.00 72 1014.4
20260905161213 32 92 0.0 1.6 0.00 0.00 0.00 70 1014.5
20260905160503 32 105 0.0 3.2 0.00 0.00 0.00 72 1014.6
20260905160003 32 105 0.0 3.2 0.00 0.00 0.00 73 1014.6
20260905155503 32 0 0.0 0.0 0.00 0.00 0.00 71 1014.5
20260905155003 33 0 0.0 0.0 0.00 0.00 0.00 72 1014.6
20260905154503 33 0 0.0 0.0 0.00 0.00 0.00 71 1014.5
20260905154003 33 0 0.0 0.0 0.00 0.00 0.00 73 1014.5
20260905153503 33 0 0.0 0.0 0.00 0.00 0.00 70 1014.6
20260905153003 33 0 0.0 0.0 0.00 0.00 0.00 71 1014.5
20260905152503 33 0 0.0 0.0 0.00 0.00 0.00 70 1014.4
20260905152003 32 0 0.0 0.0 0.00 0.00 0.00 71 1014.3
20260905151503 32 0 0.0 0.0 0.00 0.00 0.00 71 1014.3
20260905151213 32 0 0.0 0.0 0.00 0.00 0.00 71 1014.3
20260905150503 32 0 0.0 0.0 0.00 0.00 0.00 72 1014.1
20260905150213 32 0 0.0 0.0 0.00 0.00 0.00 71 1014.2
20260905145503 32 0 0.0 0.0 0.00 0.00 0.00 72 1014.0
20260905145003 31 0 0.0 0.0 0.00 0.00 0.00 72 1014.0
20260905144503 31 0 0.0 0.0 0.00 0.00 0.00 73 1013.9
20260905144003 31 0 0.0 0.0 0.00 0.00 0.00 74 1014.0
20260905143714 31 0 0.0 0.0 0.00 0.00 0.00 74 1014.0
20260905143003 31 0 0.0 0.0 0.00 0.00 0.00 75 1014.0
20260905142503 31 0 0.0 0.0 0.00 0.00 0.00 74 1014.0
20260905142003 31 0 0.0 0.0 0.00 0.00 0.00 76 1013.9
20260905141503 30 0 0.0 0.0 0.00 0.00 0.00 78 1013.9
20260905141003 30 0 0.0 0.0 0.00 0.00 0.00 77 1013.8
20260905140503 30 0 0.0 0.0 0.00 0.00 0.00 77 1013.8
20260905140004 30 0 0.0 0.0 0.00 0.00 0.00 76 1013.7
20260905135503 30 0 0.0 0.0 0.00 0.00 0.00 76 1013.6
20260905135003 30 0 0.0 0.0 0.00 0.00 0.00 77 1013.6
20260905134503 30 0 0.0 0.0 0.00 0.00 0.00 77 1013.4
20260905134003 30 0 0.0 0.0 0.00 0.00 0.00 78 1013.4
20260905133503 29 0 0.0 0.0 0.00 0.00 0.00 79 1013.5
20260905133212 28 0 0.0 0.0 0.00 0.00 0.00 81 1013.4
20260905132713 28 0 0.0 0.0 0.00 0.00 0.00 81 1013.4
20260905132003 27 0 0.0 0.0 0.00 0.00 0.00 83 1013.5
20260905131503 27 0 0.0 0.0 0.00 0.00 0.00 84 1013.6
20260905131003 27 0 0.0 0.0 0.00 0.00 0.00 84 1013.5
20260905130503 27 0 0.0 0.0 0.00 0.00 0.00 85 1013.5
20260905130003 26 0 0.0 0.0 0.00 0.00 0.00 86 1013.5
20260905125503 26 0 0.0 0.0 0.00 0.00 0.00 87 1013.6
20260905125214 26 0 0.0 0.0 0.00 0.00 0.00 88 1013.7
20260905124503 25 0 0.0 0.0 0.00 0.00 0.00 89 1013.6
20260905124003 25 0 0.0 0.0 0.00 0.00 0.00 90 1013.6
20260905123713 25 0 0.0 0.0 0.00 0.00 0.00 91 1013.7
20260905123003 25 0 0.0 0.0 0.00 0.00 0.00 91 1013.5
20260905122503 25 0 0.0 0.0 0.00 0.00 0.00 92 1013.4
20260905122003 24 0 0.0 0.0 0.00 0.00 0.00 92 1013.3
20260905121503 24 0 0.0 0.0 0.00 0.00 0.00 91 1013.2
20260905121003 24 0 0.0 0.0 0.00 0.00 0.00 91 1013.2
20260905120503 24 0 0.0 0.0 0.00 0.00 0.00 91 1013.2
20260905120003 24 0 0.0 0.0 0.00 0.00 0.00 91 1013.1
20260905115503 24 0 0.0 0.0 0.00 0.00 0.00 91 1013.1
20260905115003 24 0 0.0 0.0 0.00 0.00 0.00 91 1013.1
20260905114503 24 0 0.0 0.0 0.00 0.00 0.00 91 1013.1
20260905114003 24 0 0.0 0.0 0.00 0.00 0.00 91 1013.1
20260905113503 24 0 0.0 0.0 0.00 0.00 0.00 91 1013.0
20260905113003 24 0 0.0 0.0 0.00 0.00 0.00 91 1012.9
20260905112503 24 0 0.0 0.0 0.00 0.00 0.00 92 1012.8
20260905112003 24 0 0.0 0.0 0.00 0.00 0.00 92 1012.7
20260905111503 24 0 0.0 0.0 0.00 0.00 0.00 92 1012.6
20260905111003 24 0 0.0 0.0 0.00 0.00 0.00 92 1012.6
20260905110715 24 0 0.0 0.0 0.00 0.00 0.00 92 1012.6
20260905110003 24 0 0.0 0.0 0.00 0.00 0.00 91 1012.5
20260905105503 24 0 0.0 0.0 0.00 0.00 0.00 91 1012.6
20260905105003 24 0 0.0 0.0 0.00 0.00 0.00 91 1012.7
20260905104503 24 0 0.0 0.0 0.00 0.00 0.00 91 1012.7
20260905104213 24 0 0.0 0.0 0.00 0.00 0.00 91 1012.7
20260905103503 24 0 0.0 0.0 0.00 0.00 0.00 91 1012.7
20260905103003 24 0 0.0 0.0 0.00 0.00 0.00 91 1012.7
20260905102503 24 0 0.0 0.0 0.00 0.00 0.00 91 1012.7
20260905102003 24 0 0.0 0.0 0.00 0.00 0.00 92 1012.8
20260905101503 24 0 0.0 0.0 0.00 0.00 0.00 92 1012.9
20260905101213 24 0 0.0 0.0 0.00 0.00 0.00 91 1012.8
20260905100503 24 0 0.0 0.0 0.00 0.00 0.00 91 1012.9
20260905100003 24 0 0.0 0.0 0.00 0.00 0.00 92 1012.9
20260905095714 24 0 0.0 0.0 0.00 0.00 0.00 91 1012.9
20260905095003 24 0 0.0 0.0 0.00 0.00 0.00 91 1012.9
20260905094503 24 0 0.0 0.0 0.00 0.00 0.00 91 1012.9
20260905094003 24 0 0.0 0.0 0.00 0.00 0.00 91 1012.9
20260905093503 24 0 0.0 0.0 0.00 0.00 0.00 91 1012.8
20260905093003 25 0 0.0 0.0 0.00 0.00 0.00 91 1012.8
20260905092503 25 0 0.0 0.0 0.00 0.00 0.00 91 1012.8
20260905092003 25 0 0.0 0.0 0.00 0.00 0.00 91 1012.8
20260905091503 25 0 0.0 0.0 0.00 0.00 0.00 91 1012.9
20260905091003 25 0 0.0 0.0 0.00 0.00 0.00 91 1012.8
20260905090503 25 0 0.0 0.0 0.00 0.00 0.00 90 1012.8
20260905090003 25 0 0.0 0.0 0.00 0.00 0.00 90 1012.8
20260905085503 25 0 0.0 0.0 0.00 0.00 0.00 90 1012.9
20260905085003 25 0 0.0 0.0 0.00 0.00 0.00 90 1012.9
20260905084714 25 0 0.0 0.0 0.00 0.00 0.00 90 1012.9
20260905084212 25 0 0.0 0.0 0.00 0.00 0.00 90 1012.9
20260905083503 25 0 0.0 0.0 0.00 0.00 0.00 91 1013.0
20260905083003 25 0 0.0 0.0 0.00 0.00 0.00 91 1013.0
20260905082503 25 0 0.0 0.0 0.00 0.00 0.00 90 1013.0
20260905082003 25 0 0.0 0.0 0.00 0.00 0.00 90 1013.1
20260905081503 25 0 0.0 0.0 0.00 0.00 0.00 90 1013.1
20260905081212 25 0 0.0 0.0 0.00 0.00 0.00 90 1013.1
20260905080503 25 0 0.0 0.0 0.00 0.00 0.00 91 1013.2
20260905080003 25 0 0.0 0.0 0.00 0.00 0.00 91 1013.2
20260905075713 25 0 0.0 0.0 0.00 0.00 0.00 91 1013.2
20260905075003 25 0 0.0 0.0 0.00 0.00 0.00 91 1013.2
20260905074503 25 0 0.0 0.0 0.00 0.00 0.00 91 1013.1
20260905074003 25 0 0.0 0.0 0.00 0.00 0.00 91 1013.1
20260905073503 25 0 0.0 0.0 0.00 0.00 0.00 91 1013.1
20260905073003 25 0 0.0 0.0 0.00 0.00 0.00 91 1013.2
20260905072503 25 0 0.0 0.0 0.00 0.00 0.00 91 1013.2
20260905072003 25 0 0.0 0.0 0.00 0.00 0.00 91 1013.2
20260905071503 25 0 0.0 0.0 0.00 0.00 0.00 91 1013.2
20260905071003 25 0 0.0 0.0 0.00 0.00 0.00 91 1013.2
20260905070503 25 0 0.0 0.0 0.00 0.00 0.00 90 1013.2
20260905070003 25 0 0.0 0.0 0.00 0.00 0.00 91 1013.2
20260905065503 25 0 0.0 0.0 0.00 0.00 0.00 91 1013.1
20260905065003 25 0 0.0 0.0 0.00 0.00 0.00 91 1013.2
20260905064503 25 0 0.0 0.0 0.00 0.00 0.00 91 1013.2
20260905064003 25 0 0.0 0.0 0.00 0.00 0.00 90 1013.3
20260905063503 25 0 0.0 0.0 0.00 0.00 0.00 90 1013.4
20260905063214 25 0 0.0 0.0 0.00 0.00 0.00 90 1013.4
20260905062503 25 0 0.0 0.0 0.00 0.00 0.00 90 1013.4
20260905062003 26 0 0.0 0.0 0.00 0.00 0.00 90 1013.3
20260905061503 26 0 0.0 0.0 0.00 0.00 0.00 90 1013.4
20260905061003 26 0 0.0 0.0 0.00 0.00 0.00 90 1013.3
20260905060503 26 0 0.0 0.0 0.00 0.00 0.00 90 1013.2
20260905060003 26 0 0.0 0.0 0.00 0.00 0.00 90 1013.2
20260905055503 26 0 0.0 0.0 0.00 0.00 0.00 90 1013.2
20260905055213 26 0 0.0 0.0 0.00 0.00 0.00 90 1013.2
20260905054503 26 0 0.0 0.0 0.00 0.00 0.00 89 1013.2
20260905054003 26 0 0.0 0.0 0.00 0.00 0.00 89 1013.2
20260905053503 26 0 0.0 0.0 0.00 0.00 0.00 89 1013.4
20260905053003 26 0 0.0 0.0 0.00 0.00 0.00 89 1013.4